Location: Puketoi
(40.5833°S, 176.0167°E)
Time: 11:55:13
(UTC+00:00)

ATLAS 5 CENTAUR R/B - Visible Passes

Search period start: 28 September 2023 00:00
Search period end: 08 October 2023 00:00
Orbit: 285 x 13790 km, 60.8° (Epoch: 27 September)

Date Brightness Start Highest point End Pass type
(mag) Time Alt. Az. Time Alt. Az. Time Alt. Az.
28 Sep 5.3 17:10:28 10° SSW 17:16:12 26° SE 17:32:40 10° E visible
30 Sep 5.4 16:24:38 10° S 16:29:11 19° SE 16:39:12 10° ESE visible
02 Oct 5.4 15:38:35 10° S 15:41:35 14° SSE 15:46:27 10° ESE visible
05 Oct 5.4 16:38:51 10° SSW 16:44:51 29° SE 17:03:28 10° E visible
07 Oct 5.5 15:51:38 10° SSW 15:56:31 21° SE 16:08:03 10° E visible
